[[{"header":{"parameterUnit":"m.s-1","parameterCategory":1,"la1":30.2992,"la2":30.254,"lo1":-89.0895,"lo2":-89.0443,"dy":0.0025,"dx":0.0025,"nx":19,"ny":19,"refTime":"2026-04-26T03:00:00:Z","depth":0,"parameterNumber":2,"parameterNumberName":"U-component_of_WINDS"},"data":[0,0,0,-1.7323,-1.7324,-1.7358,-1.7359,-1.7404,-1.7405,0,0,0,0,0,0,0,0,0,0,0,-1.7314,-1.7314,-1.7323,-1.7324,-1.7358,-1.7359,-1.7404,-1.7405,0,0,0,0,0,0,0,0,0,0,0,-1.7313,-1.7314,-1.7314,-1.7324,-1.7358,-1.7359,-1.7404,-1.7378,0,0,0,0,0,0,0,0,0,0,-1.7344,-1.7336,-1.7314,-1.7314,-1.7324,-1.7358,-1.7359,-1.7376,-1.7379,-1.739,0,-1.7398,0,-1.7402,-1.7408,-1.7408,0,0,0,-1.7324,-1.7333,-1.7342,-1.7314,-1.7325,-1.7358,-1.7343,-1.7378,-1.7381,-1.7393,-1.7399,-1.74,-1.7403,-1.7408,-1.7409,-1.7467,-1.7467,0,0,-1.7322,-1.732,-1.734,-1.7344,-1.7338,-1.7342,-1.7344,-1.738,-1.7386,-1.7399,-1.7401,-1.7404,-1.7409,-1.7409,-1.7466,-1.7467,0,0,0,-1.7317,-1.7319,-1.7327,-1.7342,-1.7348,-1.7343,-1.7345,-1.7384,-1.7387,-1.7402,-1.7404,-1.7409,-1.7409,-1.7466,-1.7466,-1.7478,0,0,0,-1.7315,-1.7316,-1.7326,-1.7325,-1.7348,-1.7367,-1.7349,-1.7385,-1.7389,-1.7404,-1.7409,-1.741,-1.7466,-1.7466,-1.7477,-1.7484,0,0,0,-1.7311,-1.7315,-1.732,-1.7325,-1.734,-1.7366,-1.7371,-1.7385,-1.739,-1.7408,-1.741,-1.7465,-1.7466,-1.7476,-1.7483,-1.7499,0,0,0,-1.7306,-1.7331,-1.7321,-1.7349,-1.7339,-1.7373,-1.7371,-1.7396,-1.7413,-1.7409,-1.7466,-1.7466,-1.7476,-1.7482,-1.7498,-1.7511,-1.7517,0,0,-1.7336,-1.7334,-1.7351,-1.7343,-1.7378,-1.7368,-1.7405,-1.7423,-1.7426,-1.7453,-1.7455,-1.7478,-1.7483,-1.7498,-1.755,-1.7555,0,0,0,-1.736,-1.7372,-1.7382,-1.7398,-1.7411,-1.7424,-1.7436,-1.7442,-1.7465,-1.7439,-1.7488,-1.7491,-1.7501,-1.7507,-1.7511,-1.7519,-1.747,-1.7469,-1.7469,-1.74,-1.7403,-1.7431,-1.7438,-1.7454,-1.7466,-1.7479,-1.749,-1.7489,-1.7501,-1.7508,-1.7539,-1.7547,-1.755,-1.7558,-1.7516,-1.7517,-1.7517,-1.7517,-1.7443,-1.7461,-1.7459,-1.7485,-1.7489,-1.7512,-1.7525,-1.7523,-1.7545,-1.7534,-1.7542,-1.7529,-1.7555,-1.7562,-1.7518,-1.7517,-1.7517,-1.7517,-1.7517,-1.7469,-1.7478,-1.7486,-1.7509,-1.7527,-1.7534,-1.7555,-1.7558,-1.7561,-1.7569,-1.7578,-1.7578,-1.7577,-1.7573,-1.7573,-1.7574,-1.7574,-1.7574,-1.7574,-1.7493,-1.7501,-1.7518,-1.7535,-1.7546,-1.756,-1.7573,-1.7584,-1.7597,-1.7597,-1.7598,-1.7595,-1.7557,-1.7547,-1.7575,-1.7575,-1.7575,-1.7575,-1.7575,-1.7535,-1.7526,-1.7552,-1.7563,-1.7583,-1.7601,-1.7605,-1.7627,-1.7636,-1.7647,-1.7643,-1.7614,-1.7612,-1.7609,-1.7601,-1.7642,-1.7642,-1.7642,-1.7642,-1.7556,-1.7556,-1.7583,-1.76,-1.7617,-1.7623,-1.7653,-1.7664,-1.7674,-1.7681,-1.7675,-1.7665,-1.7662,-1.7662,-1.7658,-1.765,-1.7702,-1.7702,-1.7703,-1.7582,-1.7584,-1.7608,-1.7617,-1.7634,-1.7648,-1.7676,-1.7697,-1.7706,-1.7705,-1.7685,-1.7683,-1.7666,-1.766,-1.7658,-1.7651,-1.7637,0,0]},{"header":{"parameterUnit":"m.s-1","parameterCategory":1,"la1":30.2992,"la2":30.254,"lo1":-89.0895,"lo2":-89.0443,"dy":0.0025,"dx":0.0025,"nx":19,"ny":19,"refTime":"2026-04-26T03:00:00:Z","depth":0,"parameterNumber":3,"parameterNumberName":"V-component_of_WINDS"},"data":[0,0,0,2.5162,2.5162,2.5109,2.5108,2.5056,2.5056,0,0,0,0,0,0,0,0,0,0,0,2.519,2.519,2.5163,2.5162,2.5109,2.5108,2.5056,2.5056,0,0,0,0,0,0,0,0,0,0,0,2.519,2.519,2.519,2.5161,2.5109,2.5108,2.5056,2.509,0,0,0,0,0,0,0,0,0,0,2.5138,2.5176,2.519,2.519,2.5161,2.5109,2.5108,2.5091,2.5088,2.5087,0,2.5093,0,2.5074,2.5053,2.5053,0,0,0,2.5152,2.5179,2.5154,2.519,2.5161,2.5109,2.513,2.5089,2.5085,2.5083,2.5092,2.5089,2.5073,2.5053,2.5053,2.509,2.509,0,0,2.5155,2.5186,2.5157,2.5153,2.5165,2.5132,2.5128,2.5086,2.5097,2.5091,2.5088,2.5072,2.5053,2.5053,2.5089,2.509,0,0,0,2.517,2.5189,2.5165,2.5155,2.5145,2.513,2.5127,2.5099,2.5088,2.5087,2.5071,2.5053,2.5052,2.5088,2.5089,2.5153,0,0,0,2.5171,2.5197,2.5166,2.5185,2.5146,2.5122,2.514,2.5091,2.5086,2.5072,2.5053,2.5052,2.5088,2.5089,2.5149,2.5177,0,0,0,2.5189,2.5199,2.5196,2.5187,2.5166,2.5122,2.5109,2.5089,2.5077,2.5053,2.5052,2.5087,2.5089,2.5147,2.5172,2.5197,0,0,0,2.5217,2.5251,2.5198,2.5229,2.5166,2.5162,2.5109,2.5103,2.5091,2.5053,2.5088,2.5089,2.5146,2.5169,2.5194,2.5223,2.5239,0,0,2.5277,2.526,2.5276,2.5226,2.5241,2.5168,2.5189,2.5146,2.5114,2.5099,2.5099,2.5151,2.5172,2.5196,2.5314,2.5326,0,0,0,2.5305,2.5318,2.5314,2.5306,2.5276,2.5252,2.5203,2.5187,2.5173,2.5114,2.5165,2.5176,2.5189,2.5202,2.5212,2.5221,2.5097,2.5096,2.5096,2.5436,2.5395,2.5419,2.5372,2.5363,2.5313,2.5302,2.5272,2.523,2.5243,2.5238,2.5315,2.5331,2.5339,2.5349,2.525,2.5251,2.5251,2.5251,2.5521,2.5531,2.5478,2.5483,2.5438,2.544,2.5393,2.5364,2.5358,2.5315,2.5324,2.5282,2.5354,2.5361,2.5255,2.5255,2.5254,2.5254,2.5253,2.5602,2.56,2.5582,2.5565,2.5557,2.5506,2.5504,2.5463,2.5423,2.5432,2.5423,2.5422,2.5415,2.5431,2.5431,2.5431,2.5432,2.5432,2.5432,2.5693,2.5671,2.5675,2.5648,2.5637,2.5617,2.5567,2.5555,2.5529,2.5499,2.5499,2.5456,2.537,2.5349,2.5436,2.5435,2.5435,2.5434,2.5434,2.5795,2.5766,2.5773,2.5763,2.5727,2.5721,2.5669,2.5646,2.5629,2.5629,2.5585,2.5528,2.5505,2.5496,2.5479,2.5594,2.5594,2.5594,2.5594,2.5864,2.5849,2.5848,2.5834,2.5815,2.5769,2.5777,2.5739,2.5693,2.568,2.5657,2.563,2.5623,2.5604,2.5593,2.5576,2.5714,2.5714,2.5714,2.5924,2.5906,2.5922,2.5881,2.5849,2.5823,2.5829,2.5813,2.5755,2.5718,2.5668,2.5663,2.5619,2.5607,2.557,2.5553,2.5521,0,0]}]]